[Date Prev][Date Next][Thread Prev][Thread Next] - [Date Index][Thread Index][Author Index]
2 Line ISS Keps 9-21
- Subject: [sarex] 2 Line ISS Keps 9-21
- From: "Dr Dave Larsen PhD" <doc@xxxxxxxxxxx>
- Date: Wed, 21 Sep 2005 09:40:43 -0700
ISS
1 25544U 98067A 05264.60599784 .00021035 00000-0 15357-3 0 4007
2 25544 051.6430 127.1633 0001914 076.5649 016.8526 15.73214807390857
----
Via the sarex mailing list at AMSAT.ORG courtesy of AMSAT-NA.
To unsubscribe, send "unsubscribe sarex" to Majordomo@amsat.org
AMSAT Home